| time (UTC) | temp C | wind direction | speed KPH | gust KPH | rain 1hr cm | rain 24hr cm | rain mn cm | humidity % | barometer mb |
| 20260905051003 | 24 | 320 | 3.2 | 9.7 | 0.00 | 1.22 | 0.00 | 91 | 1011.4 |
| 20260905050503 | 24 | 313 | 4.8 | 9.7 | 0.00 | 1.22 | 0.00 | 91 | 1011.6 |
| 20260905050003 | 24 | 317 | 3.2 | 14.5 | 0.00 | 1.22 | 0.00 | 91 | 1011.6 |
| 20260905045503 | 24 | 329 | 1.6 | 14.5 | 0.00 | 1.22 | 0.00 | 92 | 1011.6 |
| 20260905045003 | 25 | 332 | 1.6 | 8.0 | 0.00 | 1.22 | 0.00 | 92 | 1011.6 |
| 20260905044503 | 25 | 340 | 1.6 | 6.4 | 0.00 | 1.22 | 0.00 | 92 | 1011.6 |
| 20260905044004 | 25 | 358 | 1.6 | 6.4 | 0.00 | 1.22 | 0.00 | 93 | 1011.6 |
| 20260905043004 | 25 | 353 | 1.6 | 4.8 | 0.00 | 1.22 | 0.00 | 93 | 1011.9 |
| 20260905042503 | 25 | 351 | 1.6 | 4.8 | 0.00 | 1.22 | 0.00 | 93 | 1011.8 |
| 20260905042003 | 25 | 347 | 1.6 | 6.4 | 0.00 | 1.22 | 0.00 | 93 | 1011.7 |
| 20260905041503 | 25 | 351 | 1.6 | 6.4 | 0.00 | 1.22 | 0.00 | 93 | 1011.7 |
| 20260905041003 | 25 | 5 | 0.0 | 3.2 | 0.00 | 1.22 | 0.00 | 92 | 1011.7 |
| 20260905040503 | 25 | 4 | 1.6 | 3.2 | 0.00 | 1.22 | 0.00 | 92 | 1011.9 |
| 20260905040004 | 25 | 5 | 1.6 | 3.2 | 0.00 | 1.22 | 0.00 | 92 | 1011.9 |
| 20260905035503 | 25 | 4 | 1.6 | 3.2 | 0.00 | 1.22 | 1.22 | 92 | 1011.8 |
| 20260905035003 | 25 | 2 | 1.6 | 3.2 | 0.00 | 1.22 | 1.22 | 92 | 1011.8 |
| 20260905034503 | 25 | 3 | 1.6 | 3.2 | 0.00 | 1.22 | 1.22 | 92 | 1011.9 |
| 20260905034003 | 25 | 358 | 1.6 | 4.8 | 0.00 | 1.22 | 1.22 | 91 | 1012.0 |
| 20260905033003 | 25 | 332 | 1.6 | 4.8 | 0.00 | 1.22 | 1.22 | 91 | 1011.9 |
| 20260905032503 | 25 | 326 | 0.0 | 4.8 | 0.00 | 1.22 | 1.22 | 90 | 1012.0 |
| 20260905032003 | 25 | 334 | 0.0 | 4.8 | 0.00 | 1.22 | 1.22 | 89 | 1012.0 |
| 20260905031503 | 25 | 350 | 0.0 | 4.8 | 0.00 | 1.22 | 1.22 | 89 | 1012.0 |
| 20260905031004 | 25 | 30 | 0.0 | 3.2 | 0.00 | 1.22 | 1.22 | 89 | 1012.2 |
| 20260905030503 | 25 | 346 | 1.6 | 6.4 | 0.00 | 1.22 | 1.22 | 89 | 1012.2 |
| 20260905030004 | 25 | 336 | 1.6 | 6.4 | 0.00 | 1.22 | 1.22 | 89 | 1012.3 |
| 20260905025503 | 25 | 340 | 0.0 | 3.2 | 0.00 | 1.22 | 1.22 | 89 | 1012.4 |
| 20260905025003 | 25 | 16 | 0.0 | 3.2 | 0.00 | 1.22 | 1.22 | 89 | 1012.4 |
| 20260905024003 | 25 | 8 | 0.0 | 3.2 | 0.00 | 1.22 | 1.22 | 89 | 1012.4 |
| 20260905023504 | 25 | 3 | 0.0 | 3.2 | 0.00 | 1.22 | 1.22 | 89 | 1012.4 |
| 20260905023003 | 25 | 3 | 0.0 | 3.2 | 0.00 | 1.22 | 1.22 | 89 | 1012.3 |
| 20260905022503 | 25 | 4 | 0.0 | 3.2 | 0.00 | 1.22 | 1.22 | 88 | 1012.3 |
| 20260905021503 | 25 | 332 | 0.0 | 3.2 | 0.00 | 1.22 | 1.22 | 88 | 1012.6 |
| 20260905021003 | 25 | 5 | 0.0 | 1.6 | 0.00 | 1.22 | 1.22 | 88 | 1012.5 |
| 20260905020503 | 25 | 10 | 0.0 | 3.2 | 0.00 | 1.22 | 1.22 | 87 | 1012.4 |
| 20260905020003 | 25 | 23 | 0.0 | 3.2 | 0.00 | 1.22 | 1.22 | 87 | 1012.3 |
| 20260905015503 | 25 | 4 | 1.6 | 6.4 | 0.00 | 1.22 | 1.22 | 87 | 1012.2 |
| 20260905015003 | 25 | 2 | 1.6 | 6.4 | 0.00 | 1.22 | 1.22 | 87 | 1012.2 |
| 20260905014504 | 25 | 1 | 1.6 | 4.8 | 0.00 | 1.22 | 1.22 | 87 | 1012.2 |
| 20260905014003 | 25 | 1 | 1.6 | 4.8 | 0.00 | 1.22 | 1.22 | 87 | 1012.5 |
| 20260905013503 | 25 | 1 | 1.6 | 4.8 | 0.00 | 1.22 | 1.22 | 87 | 1012.5 |
| 20260905013003 | 26 | 1 | 0.0 | 3.2 | 0.00 | 1.22 | 1.22 | 87 | 1012.5 |
| 20260905012504 | 26 | 0 | 0.0 | 0.0 | 0.00 | 1.22 | 1.22 | 87 | 1012.4 |
| 20260905012003 | 26 | 40 | 0.0 | 3.2 | 0.00 | 1.22 | 1.22 | 87 | 1012.4 |
| 20260905011503 | 26 | 12 | 0.0 | 4.8 | 0.00 | 1.22 | 1.22 | 88 | 1012.3 |
| 20260905010503 | 26 | 23 | 1.6 | 3.2 | 0.00 | 1.22 | 1.22 | 86 | 1012.2 |
| 20260905005504 | 26 | 124 | 0.0 | 3.2 | 0.00 | 1.22 | 1.22 | 85 | 1012.3 |
| 20260905005003 | 26 | 136 | 0.0 | 3.2 | 0.00 | 1.22 | 1.22 | 85 | 1012.2 |
| 20260905004504 | 26 | 89 | 0.0 | 3.2 | 0.00 | 1.22 | 1.22 | 85 | 1012.2 |
| 20260905004003 | 26 | 20 | 0.0 | 3.2 | 0.00 | 1.22 | 1.22 | 85 | 1012.2 |
| 20260905003503 | 26 | 12 | 0.0 | 3.2 | 0.00 | 1.22 | 1.22 | 83 | 1012.1 |
| 20260905003003 | 26 | 30 | 0.0 | 3.2 | 0.00 | 1.22 | 1.22 | 83 | 1012.2 |
| 20260905002503 | 26 | 91 | 0.0 | 1.6 | 0.00 | 1.22 | 1.22 | 83 | 1012.2 |
| 20260905002004 | 26 | 117 | 0.0 | 3.2 | 0.00 | 1.22 | 1.22 | 83 | 1012.2 |
| 20260905001505 | 26 | 85 | 0.0 | 3.2 | 0.00 | 1.22 | 1.22 | 82 | 1012.0 |
| 20260905001004 | 26 | 85 | 0.0 | 3.2 | 0.00 | 1.22 | 1.22 | 81 | 1011.9 |
| 20260905000503 | 26 | 75 | 0.0 | 3.2 | 0.00 | 1.22 | 1.22 | 81 | 1011.9 |
| 20260905000003 | 26 | 33 | 0.0 | 3.2 | 0.00 | 1.22 | 1.22 | 80 | 1011.7 |
| 20260904235503 | 26 | 22 | 0.0 | 3.2 | 0.00 | 1.22 | 1.22 | 79 | 1011.6 |
| 20260904235003 | 27 | 16 | 0.0 | 3.2 | 0.00 | 1.22 | 1.22 | 80 | 1011.7 |
| 20260904234504 | 27 | 34 | 0.0 | 3.2 | 0.00 | 1.22 | 1.22 | 80 | 1011.6 |
| 20260904234003 | 27 | 90 | 0.0 | 3.2 | 0.00 | 1.22 | 1.22 | 78 | 1011.5 |
| 20260904233503 | 27 | 105 | 0.0 | 3.2 | 0.00 | 1.22 | 1.22 | 77 | 1011.5 |
| 20260904233005 | 27 | 90 | 0.0 | 3.2 | 0.00 | 1.22 | 1.22 | 77 | 1011.5 |
| 20260904232004 | 27 | 135 | 0.0 | 3.2 | 0.00 | 1.22 | 1.22 | 76 | 1011.5 |
| 20260904231503 | 27 | 82 | 0.0 | 3.2 | 0.00 | 1.22 | 1.22 | 77 | 1011.4 |
| 20260904231003 | 27 | 30 | 1.6 | 3.2 | 0.00 | 1.22 | 1.22 | 75 | 1011.6 |
| 20260904230004 | 27 | 68 | 0.0 | 3.2 | 0.00 | 1.22 | 1.22 | 75 | 1011.9 |
| 20260904225503 | 27 | 89 | 0.0 | 3.2 | 0.00 | 1.22 | 1.22 | 74 | 1012.1 |
| 20260904225004 | 28 | 91 | 0.0 | 3.2 | 0.00 | 1.22 | 1.22 | 73 | 1012.3 |
| 20260904224503 | 28 | 51 | 0.0 | 1.6 | 0.00 | 1.22 | 1.22 | 73 | 1012.4 |
| 20260904224004 | 28 | 352 | 1.6 | 6.4 | 0.00 | 1.22 | 1.22 | 73 | 1012.5 |
| 20260904223505 | 28 | 330 | 1.6 | 6.4 | 0.00 | 1.22 | 1.22 | 72 | 1012.8 |
| 20260904222504 | 28 | 5 | 0.0 | 3.2 | 0.00 | 1.22 | 1.22 | 73 | 1013.0 |
| 20260904221003 | 28 | 352 | 0.0 | 3.2 | 0.00 | 1.22 | 1.22 | 70 | 1012.9 |
| 20260904220503 | 28 | 326 | 1.6 | 6.4 | 0.00 | 1.22 | 1.22 | 71 | 1012.7 |
| 20260904220003 | 28 | 322 | 1.6 | 6.4 | 0.00 | 1.22 | 1.22 | 70 | 1012.8 |
| 20260904215503 | 28 | 324 | 3.2 | 11.3 | 0.00 | 1.22 | 1.22 | 69 | 1012.9 |
| 20260904215003 | 28 | 326 | 3.2 | 11.3 | 0.00 | 1.22 | 1.22 | 70 | 1012.8 |
| 20260904214504 | 29 | 335 | 3.2 | 9.7 | 0.00 | 1.22 | 1.22 | 71 | 1012.8 |
| 20260904214005 | 29 | 341 | 3.2 | 6.4 | 0.00 | 1.22 | 1.22 | 71 | 1012.8 |
| 20260904213504 | 29 | 336 | 3.2 | 12.9 | 0.00 | 1.22 | 1.22 | 70 | 1012.8 |
| 20260904212504 | 29 | 348 | 3.2 | 14.5 | 0.00 | 1.22 | 1.22 | 70 | 1012.9 |
| 20260904212003 | 30 | 357 | 4.8 | 12.9 | 0.00 | 1.22 | 1.22 | 69 | 1012.7 |
| 20260904211503 | 30 | 4 | 4.8 | 12.9 | 0.00 | 1.22 | 1.22 | 66 | 1012.6 |
| 20260904211003 | 30 | 346 | 3.2 | 11.3 | 0.00 | 1.22 | 1.22 | 67 | 1012.6 |
| 20260904210004 | 30 | 3 | 4.8 | 17.7 | 0.00 | 1.22 | 1.22 | 67 | 1012.5 |
| 20260904205003 | 30 | 332 | 6.4 | 20.9 | 0.00 | 1.22 | 1.22 | 65 | 1012.8 |
| 20260904204503 | 30 | 314 | 8.0 | 17.7 | 0.00 | 1.22 | 1.22 | 66 | 1012.8 |
| 20260904204003 | 30 | 310 | 8.0 | 19.3 | 0.00 | 1.22 | 1.22 | 65 | 1012.9 |
| 20260904203503 | 30 | 325 | 8.0 | 20.9 | 0.00 | 1.22 | 1.22 | 66 | 1012.9 |
| 20260904203003 | 30 | 338 | 8.0 | 20.9 | 0.00 | 1.22 | 1.22 | 66 | 1012.9 |
| 20260904202004 | 30 | 312 | 9.7 | 25.7 | 0.00 | 1.22 | 1.22 | 65 | 1012.7 |
| 20260904201503 | 30 | 312 | 9.7 | 25.7 | 0.00 | 1.22 | 1.22 | 64 | 1012.8 |
| 20260904200503 | 30 | 319 | 8.0 | 19.3 | 0.00 | 1.22 | 1.22 | 68 | 1012.7 |
| 20260904200005 | 30 | 324 | 6.4 | 19.3 | 0.00 | 1.22 | 1.22 | 67 | 1012.7 |
| 20260904195503 | 30 | 324 | 4.8 | 16.1 | 0.00 | 1.22 | 1.22 | 67 | 1012.8 |
| 20260904195003 | 30 | 316 | 6.4 | 16.1 | 0.00 | 1.22 | 1.22 | 67 | 1012.9 |
| 20260904194504 | 30 | 312 | 8.0 | 17.7 | 0.00 | 1.22 | 1.22 | 66 | 1012.9 |
| 20260904194003 | 30 | 315 | 6.4 | 17.7 | 0.00 | 1.22 | 1.22 | 66 | 1012.8 |
| 20260904193503 | 30 | 318 | 6.4 | 20.9 | 0.00 | 1.22 | 1.22 | 67 | 1012.9 |
| 20260904193004 | 30 | 332 | 6.4 | 20.9 | 0.00 | 1.22 | 1.22 | 65 | 1012.9 |
| 20260904192503 | 30 | 335 | 6.4 | 17.7 | 0.00 | 1.22 | 1.22 | 64 | 1013.0 |
| 20260904192003 | 30 | 322 | 6.4 | 17.7 | 0.00 | 1.22 | 1.22 | 67 | 1012.9 |
| 20260904191503 | 30 | 337 | 6.4 | 20.9 | 0.00 | 1.22 | 1.22 | 66 | 1013.0 |
| 20260904191004 | 30 | 340 | 9.7 | 20.9 | 0.00 | 1.22 | 1.22 | 66 | 1013.0 |
| 20260904190004 | 30 | 316 | 6.4 | 19.3 | 0.00 | 1.22 | 1.22 | 64 | 1013.3 |
| 20260904185503 | 30 | 318 | 4.8 | 19.3 | 0.00 | 1.22 | 1.22 | 66 | 1013.3 |
| 20260904185003 | 31 | 310 | 6.4 | 17.7 | 0.00 | 1.22 | 1.22 | 65 | 1013.3 |
| 20260904184503 | 31 | 318 | 6.4 | 17.7 | 0.00 | 1.22 | 1.22 | 65 | 1013.4 |
| 20260904184003 | 31 | 348 | 4.8 | 12.9 | 0.00 | 1.22 | 1.22 | 67 | 1013.4 |
| 20260904183504 | 31 | 337 | 4.8 | 16.1 | 0.00 | 1.22 | 1.22 | 66 | 1013.3 |
| 20260904183003 | 31 | 316 | 6.4 | 16.1 | 0.00 | 1.22 | 1.22 | 66 | 1013.4 |
| 20260904182503 | 31 | 317 | 3.2 | 14.5 | 0.00 | 1.22 | 1.22 | 65 | 1013.5 |
| 20260904181503 | 31 | 325 | 4.8 | 19.3 | 0.00 | 1.22 | 1.22 | 66 | 1013.5 |
| 20260904181003 | 31 | 320 | 6.4 | 19.3 | 0.00 | 1.22 | 1.22 | 66 | 1013.5 |
| 20260904180503 | 31 | 323 | 6.4 | 19.3 | 0.00 | 1.22 | 1.22 | 66 | 1013.6 |
| 20260904180003 | 31 | 335 | 4.8 | 12.9 | 0.00 | 1.22 | 1.22 | 66 | 1013.6 |
| 20260904175003 | 31 | 343 | 4.8 | 12.9 | 0.00 | 1.22 | 1.22 | 67 | 1013.7 |
| 20260904174503 | 31 | 336 | 3.2 | 16.1 | 0.00 | 1.22 | 1.22 | 67 | 1013.8 |
| 20260904174004 | 31 | 329 | 3.2 | 16.1 | 0.00 | 1.22 | 1.22 | 66 | 1013.8 |
| 20260904173504 | 31 | 330 | 3.2 | 20.9 | 0.00 | 1.22 | 1.22 | 67 | 1013.8 |
| 20260904173003 | 30 | 327 | 4.8 | 20.9 | 0.00 | 1.22 | 1.22 | 68 | 1013.8 |
| 20260904172503 | 30 | 347 | 6.4 | 19.3 | 0.00 | 1.22 | 1.22 | 66 | 1013.8 |
| 20260904172003 | 30 | 1 | 4.8 | 16.1 | 0.00 | 1.22 | 1.22 | 68 | 1013.8 |
| 20260904171503 | 30 | 319 | 4.8 | 22.5 | 0.00 | 1.22 | 1.22 | 67 | 1013.8 |
| 20260904171003 | 30 | 313 | 8.0 | 27.4 | 0.00 | 1.22 | 1.22 | 67 | 1013.9 |
| 20260904170503 | 30 | 320 | 6.4 | 27.4 | 0.00 | 1.22 | 1.22 | 66 | 1013.9 |
| 20260904170004 | 30 | 332 | 4.8 | 14.5 | 0.00 | 1.22 | 1.22 | 66 | 1014.1 |
| 20260904165503 | 30 | 327 | 4.8 | 16.1 | 0.00 | 1.22 | 1.22 | 67 | 1014.0 |
| 20260904165003 | 30 | 321 | 6.4 | 16.1 | 0.00 | 1.22 | 1.22 | 71 | 1014.0 |
| 20260904164503 | 30 | 338 | 4.8 | 16.1 | 0.00 | 1.22 | 1.22 | 68 | 1014.0 |
| 20260904164003 | 30 | 5 | 4.8 | 17.7 | 0.00 | 1.22 | 1.22 | 67 | 1014.1 |
| 20260904163504 | 30 | 345 | 6.4 | 17.7 | 0.00 | 1.22 | 1.22 | 67 | 1014.1 |
| 20260904163004 | 30 | 352 | 6.4 | 17.7 | 0.00 | 1.22 | 1.22 | 67 | 1014.1 |
| 20260904162003 | 30 | 353 | 6.4 | 19.3 | 0.00 | 1.22 | 1.22 | 68 | 1014.2 |
| 20260904161504 | 30 | 344 | 8.0 | 19.3 | 0.00 | 1.22 | 1.22 | 69 | 1014.3 |
| 20260904161003 | 29 | 328 | 6.4 | 20.9 | 0.00 | 1.22 | 1.22 | 72 | 1014.3 |
| 20260904160504 | 29 | 336 | 6.4 | 20.9 | 0.00 | 1.22 | 1.22 | 71 | 1014.3 |
| 20260904160003 | 30 | 352 | 6.4 | 17.7 | 0.00 | 1.22 | 1.22 | 70 | 1014.2 |
| 20260904155503 | 29 | 349 | 6.4 | 19.3 | 0.00 | 1.22 | 1.22 | 72 | 1014.2 |
| 20260904155003 | 29 | 335 | 6.4 | 19.3 | 0.00 | 1.22 | 1.22 | 72 | 1014.3 |
| 20260904154003 | 28 | 332 | 8.0 | 19.3 | 0.00 | 1.22 | 1.22 | 72 | 1014.3 |
| 20260904153503 | 28 | 337 | 8.0 | 20.9 | 0.00 | 1.22 | 1.22 | 71 | 1014.3 |
| 20260904153003 | 28 | 329 | 8.0 | 25.7 | 0.00 | 1.22 | 1.22 | 72 | 1014.3 |
| 20260904152503 | 29 | 333 | 9.7 | 25.7 | 0.00 | 1.22 | 1.22 | 72 | 1014.5 |
| 20260904152003 | 29 | 352 | 8.0 | 20.9 | 0.00 | 1.22 | 1.22 | 71 | 1014.4 |
| 20260904151503 | 28 | 345 | 8.0 | 19.3 | 0.00 | 1.22 | 1.22 | 71 | 1014.4 |
| 20260904151003 | 28 | 325 | 8.0 | 17.7 | 0.00 | 1.22 | 1.22 | 73 | 1014.4 |
| 20260904150004 | 28 | 354 | 8.0 | 22.5 | 0.00 | 1.22 | 1.22 | 74 | 1014.3 |
| 20260904145503 | 28 | 347 | 8.0 | 17.7 | 0.00 | 1.22 | 1.22 | 75 | 1014.3 |
| 20260904145003 | 28 | 346 | 6.4 | 16.1 | 0.00 | 1.22 | 1.22 | 75 | 1014.2 |
| 20260904144504 | 28 | 346 | 6.4 | 17.7 | 0.00 | 1.22 | 1.22 | 75 | 1014.2 |
| 20260904144003 | 27 | 350 | 8.0 | 29.0 | 0.00 | 1.22 | 1.22 | 76 | 1014.3 |
| 20260904143503 | 27 | 348 | 8.0 | 29.0 | 0.00 | 1.22 | 1.22 | 76 | 1014.3 |
| 20260904143003 | 27 | 330 | 9.7 | 27.4 | 0.00 | 1.22 | 1.22 | 78 | 1014.4 |
| 20260904142503 | 27 | 321 | 8.0 | 27.4 | 0.00 | 1.22 | 1.22 | 78 | 1014.3 |
| 20260904142004 | 27 | 334 | 6.4 | 19.3 | 0.00 | 1.22 | 1.22 | 81 | 1014.2 |
| 20260904141504 | 26 | 340 | 11.3 | 22.5 | 0.00 | 1.22 | 1.22 | 80 | 1014.3 |
| 20260904141003 | 26 | 336 | 9.7 | 22.5 | 0.00 | 1.22 | 1.22 | 80 | 1014.2 |
| 20260904140503 | 26 | 327 | 8.0 | 22.5 | 0.00 | 1.22 | 1.22 | 85 | 1014.2 |
| 20260904140003 | 26 | 324 | 8.0 | 22.5 | 0.00 | 1.22 | 1.22 | 85 | 1014.2 |
| 20260904135503 | 26 | 317 | 8.0 | 17.7 | 0.00 | 1.22 | 1.22 | 87 | 1014.0 |
| 20260904134503 | 25 | 309 | 9.7 | 20.9 | 0.00 | 1.22 | 1.22 | 90 | 1013.9 |
| 20260904134003 | 25 | 313 | 9.7 | 20.9 | 0.00 | 1.22 | 1.22 | 90 | 1014.0 |
| 20260904133503 | 25 | 318 | 6.4 | 16.1 | 0.00 | 1.22 | 1.22 | 92 | 1014.0 |
| 20260904132504 | 24 | 314 | 6.4 | 17.7 | 0.00 | 1.22 | 1.22 | 94 | 1014.2 |
| 20260904132003 | 24 | 314 | 8.0 | 27.4 | 0.00 | 1.22 | 1.22 | 95 | 1014.1 |
| 20260904131503 | 23 | 314 | 11.3 | 27.4 | 0.00 | 1.22 | 1.22 | 95 | 1014.4 |
| 20260904131003 | 23 | 316 | 9.7 | 24.1 | 0.00 | 1.22 | 1.22 | 96 | 1014.4 |
| 20260904130504 | 23 | 315 | 8.0 | 24.1 | 0.00 | 1.22 | 1.22 | 96 | 1014.3 |
| 20260904130003 | 23 | 316 | 6.4 | 29.0 | 0.00 | 1.22 | 1.22 | 97 | 1014.4 |
| 20260904125003 | 23 | 335 | 3.2 | 9.7 | 0.00 | 1.22 | 1.22 | 97 | 1014.3 |
| 20260904124503 | 23 | 317 | 4.8 | 20.9 | 0.00 | 1.22 | 1.22 | 97 | 1014.3 |
| 20260904124003 | 23 | 319 | 4.8 | 20.9 | 0.00 | 1.22 | 1.22 | 97 | 1014.3 |
| 20260904123503 | 23 | 325 | 4.8 | 19.3 | 0.00 | 1.22 | 1.22 | 97 | 1014.4 |
| 20260904122503 | 23 | 318 | 4.8 | 16.1 | 0.00 | 1.22 | 1.22 | 97 | 1014.4 |
| 20260904122004 | 23 | 331 | 3.2 | 11.3 | 0.00 | 1.22 | 1.22 | 97 | 1014.2 |
| 20260904121503 | 23 | 335 | 3.2 | 11.3 | 0.00 | 1.22 | 1.22 | 97 | 1014.3 |
| 20260904121003 | 23 | 338 | 3.2 | 11.3 | 0.00 | 1.22 | 1.22 | 97 | 1014.2 |
| 20260904120504 | 23 | 343 | 1.6 | 9.7 | 0.00 | 1.22 | 1.22 | 97 | 1014.2 |
| 20260904120004 | 23 | 351 | 1.6 | 6.4 | 0.03 | 1.22 | 1.22 | 97 | 1014.0 |
| 20260904115503 | 23 | 339 | 1.6 | 6.4 | 0.03 | 1.22 | 1.22 | 97 | 1014.2 |
| 20260904115003 | 23 | 339 | 1.6 | 6.4 | 0.03 | 1.22 | 1.22 | 97 | 1014.4 |
| 20260904114003 | 22 | 334 | 1.6 | 9.7 | 0.03 | 1.22 | 1.22 | 97 | 1014.4 |
| 20260904113503 | 22 | 341 | 1.6 | 8.0 | 0.03 | 1.22 | 1.22 | 97 | 1014.3 |
| 20260904113003 | 22 | 352 | 1.6 | 6.4 | 0.03 | 1.22 | 1.22 | 97 | 1014.2 |
| 20260904112504 | 22 | 345 | 1.6 | 6.4 | 0.03 | 1.22 | 1.22 | 97 | 1014.2 |
| 20260904112003 | 22 | 329 | 1.6 | 8.0 | 0.03 | 1.22 | 1.22 | 97 | 1014.4 |
| 20260904110503 | 22 | 352 | 1.6 | 9.7 | 0.03 | 1.22 | 1.22 | 97 | 1014.1 |
| 20260904110004 | 22 | 342 | 1.6 | 9.7 | 0.00 | 1.19 | 1.19 | 97 | 1014.0 |
| 20260904104503 | 22 | 348 | 1.6 | 6.4 | 0.00 | 1.19 | 1.19 | 97 | 1013.8 |
| 20260904104003 | 22 | 357 | 1.6 | 4.8 | 0.00 | 1.19 | 1.19 | 97 | 1013.6 |
| 20260904103003 | 22 | 1 | 1.6 | 3.2 | 0.00 | 1.19 | 1.19 | 97 | 1013.5 |
| 20260904102503 | 22 | 2 | 1.6 | 3.2 | 0.00 | 1.19 | 1.19 | 97 | 1013.5 |
| 20260904102003 | 22 | 7 | 1.6 | 3.2 | 0.00 | 1.19 | 1.19 | 97 | 1013.6 |
| 20260904101503 | 22 | 345 | 1.6 | 4.8 | 0.00 | 1.19 | 1.19 | 97 | 1013.5 |
| 20260904101003 | 22 | 319 | 1.6 | 8.0 | 0.00 | 1.19 | 1.19 | 97 | 1013.5 |
| 20260904100503 | 22 | 316 | 3.2 | 8.0 | 0.00 | 1.19 | 1.19 | 97 | 1013.5 |
| 20260904100003 | 22 | 318 | 1.6 | 8.0 | 0.00 | 1.19 | 1.19 | 97 | 1013.5 |
| 20260904095503 | 22 | 343 | 1.6 | 4.8 | 0.00 | 1.19 | 1.19 | 96 | 1013.4 |
| 20260904095004 | 22 | 359 | 1.6 | 4.8 | 0.00 | 1.19 | 1.19 | 96 | 1013.4 |
| 20260904094503 | 22 | 338 | 1.6 | 4.8 | 0.00 | 1.19 | 1.19 | 96 | 1013.2 |
| 20260904094004 | 22 | 331 | 1.6 | 4.8 | 0.00 | 1.19 | 1.19 | 96 | 1013.2 |
| 20260904093503 | 22 | 344 | 0.0 | 4.8 | 0.00 | 1.19 | 1.19 | 96 | 1013.3 |
| 20260904093004 | 22 | 356 | 0.0 | 3.2 | 0.00 | 1.19 | 1.19 | 96 | 1013.3 |
| 20260904092503 | 22 | 359 | 0.0 | 3.2 | 0.00 | 1.19 | 1.19 | 96 | 1013.4 |
| 20260904092003 | 22 | 13 | 0.0 | 3.2 | 0.00 | 1.19 | 1.19 | 96 | 1013.4 |
| 20260904091504 | 22 | 58 | 0.0 | 3.2 | 0.00 | 1.19 | 1.19 | 96 | 1013.3 |
| 20260904091003 | 22 | 11 | 0.0 | 3.2 | 0.00 | 1.19 | 1.19 | 96 | 1013.4 |
| 20260904090504 | 22 | 353 | 0.0 | 3.2 | 0.00 | 1.19 | 1.19 | 96 | 1013.6 |
| 20260904090004 | 22 | 5 | 0.0 | 3.2 | 0.00 | 1.19 | 1.19 | 96 | 1013.6 |
| 20260904084503 | 22 | 9 | 0.0 | 3.2 | 0.00 | 1.19 | 1.19 | 96 | 1013.6 |
| 20260904084003 | 22 | 352 | 0.0 | 6.4 | 0.00 | 1.19 | 1.19 | 96 | 1013.6 |
| 20260904083503 | 22 | 346 | 0.0 | 6.4 | 0.00 | 1.19 | 1.19 | 96 | 1013.5 |
| 20260904083004 | 22 | 1 | 0.0 | 3.2 | 0.00 | 1.19 | 1.19 | 96 | 1013.4 |
| 20260904082503 | 22 | 1 | 0.0 | 3.2 | 0.00 | 1.19 | 1.19 | 96 | 1013.3 |
| 20260904082003 | 22 | 16 | 0.0 | 3.2 | 0.00 | 1.19 | 1.19 | 96 | 1013.4 |
| 20260904081504 | 22 | 10 | 0.0 | 3.2 | 0.00 | 1.19 | 1.19 | 96 | 1013.3 |
| 20260904081003 | 22 | 26 | 1.6 | 4.8 | 0.00 | 1.19 | 1.19 | 96 | 1013.4 |
| 20260904080503 | 22 | 45 | 1.6 | 4.8 | 0.00 | 1.19 | 1.19 | 96 | 1013.5 |
| 20260904080003 | 22 | 26 | 0.0 | 3.2 | 0.00 | 1.19 | 1.19 | 96 | 1013.8 |
| 20260904075003 | 22 | 4 | 0.0 | 4.8 | 0.03 | 1.19 | 1.19 | 96 | 1014.2 |
| 20260904074504 | 22 | 3 | 1.6 | 4.8 | 0.03 | 1.19 | 1.19 | 96 | 1014.2 |
| 20260904074003 | 22 | 2 | 1.6 | 4.8 | 0.05 | 1.19 | 1.19 | 96 | 1014.3 |
| 20260904073504 | 22 | 2 | 1.6 | 3.2 | 0.05 | 1.22 | 1.19 | 96 | 1014.3 |
| 20260904073003 | 22 | 3 | 0.0 | 3.2 | 0.08 | 1.22 | 1.19 | 96 | 1014.4 |
| 20260904072503 | 22 | 353 | 0.0 | 3.2 | 0.10 | 1.22 | 1.19 | 96 | 1014.7 |
| 20260904072005 | 22 | 327 | 0.0 | 3.2 | 0.13 | 1.22 | 1.19 | 96 | 1014.6 |
| 20260904071003 | 22 | 359 | 3.2 | 11.3 | 0.23 | 1.22 | 1.19 | 96 | 1014.5 |
| 20260904070503 | 22 | 2 | 4.8 | 12.9 | 0.25 | 1.22 | 1.19 | 96 | 1014.4 |
| 20260904070003 | 22 | 2 | 6.4 | 17.7 | 0.33 | 1.22 | 1.19 | 96 | 1014.6 |
| 20260904065504 | 22 | 1 | 6.4 | 17.7 | 0.36 | 1.19 | 1.17 | 96 | 1014.5 |
| 20260904065003 | 22 | 1 | 6.4 | 16.1 | 0.41 | 1.19 | 1.17 | 96 | 1014.5 |
| 20260904064504 | 22 | 2 | 6.4 | 16.1 | 0.43 | 1.19 | 1.17 | 96 | 1014.6 |
| 20260904064003 | 22 | 3 | 6.4 | 16.1 | 0.43 | 1.17 | 1.14 | 96 | 1014.2 |
| 20260904063503 | 22 | 7 | 3.2 | 12.9 | 0.46 | 1.17 | 1.14 | 96 | 1013.9 |
| 20260904063004 | 22 | 12 | 1.6 | 8.0 | 0.43 | 1.14 | 1.12 | 96 | 1013.9 |
| 20260904062503 | 22 | 11 | 1.6 | 8.0 | 0.51 | 1.12 | 1.09 | 96 | 1014.2 |
| 20260904061504 | 22 | 338 | 4.8 | 20.9 | 1.02 | 1.04 | 1.02 | 96 | 1014.2 |
| 20260904061003 | 22 | 324 | 14.5 | 20.9 | 0.97 | 0.99 | 0.97 | 96 | 1014.3 |
| 20260904060503 | 22 | 322 | 20.9 | 20.9 | 0.91 | 0.94 | 0.91 | 95 | 1014.7 |
| 20260904055504 | 22 | 319 | 14.5 | 24.1 | 0.81 | 0.84 | 0.81 | 95 | 1015.4 |
| 20260904054503 | 22 | 319 | 9.7 | 33.8 | 0.71 | 0.74 | 0.71 | 95 | 1015.9 |
| 20260904054004 | 22 | 313 | 17.7 | 48.3 | 0.71 | 0.74 | 0.71 | 94 | 1015.8 |
| 20260904053503 | 22 | 311 | 24.1 | 48.3 | 0.69 | 0.71 | 0.69 | 93 | 1015.8 |
| 20260904052503 | 23 | 310 | 32.2 | 62.8 | 0.56 | 0.58 | 0.56 | 91 | 1015.6 |
| 20260904052003 | 25 | 312 | 29.0 | 51.5 | 0.36 | 0.38 | 0.36 | 90 | 1015.8 |
| 20260904051504 | 26 | 322 | 9.7 | 48.3 | 0.00 | 0.05 | 0.00 | 95 | 1015.3 |